Flag Weather past 2 weeks in Market Harborough, England, United Kingdom

Now
30 °F

Chilly.


Feels Like: 30 °F
Forecast: N/A
Wind: 1 mph from South

Location: Church Lawford

Current Time: Nov 24, 2014 at 11:14:58 PM

Latest Report: Nov 24, 2014 at 10:00 PM


Visibility: 1 mi

Pressure: 30.35 "Hg

Humidity: 100%

Dew point: 30 °F

Location of Market HarboroughLocation

Historic Weather in Market Harborough — Graph

°F

Market Harborough temperature yesterday

Maximum temperature yesterday: 48 °F (at 12:00 AM)
Minimum temperature yesterday: 36 °F (at 11:00 PM)
Average temperature yesterday: 44 °F

Past Weeks' High & Low Weather Summary

 TemperatureHumidityPressure
High57 °F (Nov 22, 1:00 PM)100% (Nov 15, 11:00 AM)30.36 "Hg (Nov 15, 11:00 AM)
Low30 °F (Nov 24, 10:00 PM)68% (Nov 14, 2:00 PM)29.26 "Hg (Nov 12, 12:00 AM)
Average47 °F94%29.76 "Hg
* Reported Nov 9 10:00 PM — Nov 24 10:00 PM, Market Harborough, Weather by CustomWeather, © 2014

Note: Actual official high and low records may vary slightly from our data, if they occured in-between our weather recording intervals... More about our weather records

Advertising

Market Harborough weather history for previous 24 hours

 ConditionsComfort  
Time TempWeatherWind HumidityBarometerVisibility
10:00 PM
Nov 24
30 °FChilly.1 mph100%30.35 "Hg1 mi
8:00 PM32 °FFog.1 mph99%30.36 "Hg3 mi
7:00 PM32 °FChilly.No wind98%30.35 "Hg2 mi
6:00 PM34 °FChilly.1 mph97%30.35 "Hg2 mi
5:00 PM36 °FChilly.2 mph94%30.35 "Hg7 mi
4:00 PM41 °FQuite cool.2 mph92%30.33 "Hg11 mi
3:00 PM43 °FQuite cool.2 mph88%30.33 "Hg16 mi
2:00 PM45 °FQuite cool.2 mph84%30.34 "Hg16 mi
1:00 PM43 °FQuite cool.2 mph88%30.35 "Hg19 mi
12:00 PM42 °FQuite cool.2 mph87%30.34 "Hg19 mi
11:00 AM42 °FQuite cool.5 mph85%30.34 "Hg16 mi
10:00 AM38 °FChilly.3 mph99%30.34 "Hg14 mi
9:00 AM35 °FChilly.3 mph99%30.33 "Hg9 mi
8:00 AM32 °FChilly.2 mph100%30.31 "Hg7 mi
7:00 AM32 °FFog.2 mph99%30.29 "Hg4 mi
6:00 AM32 °FChilly.3 mph98%30.27 "Hg6 mi
5:00 AM33 °FChilly.2 mph98%30.25 "Hg7 mi
4:00 AM34 °FChilly.3 mph96%30.25 "Hg8 mi
3:00 AM35 °FChilly.6 mph98%30.24 "Hg9 mi
2:00 AM35 °FChilly.5 mph98%30.23 "Hg7 mi
1:00 AM34 °FFog.2 mph98%30.22 "Hg3 mi
12:00 AM36 °FChilly.7 mph98%30.20 "Hg7 mi
11:00 PM
Nov 23
36 °FChilly.6 mph97%30.19 "Hg8 mi
Weather by CustomWeather, © 2014

See weather overviewHow to use our weather pages